Location: Unspecified
(44.0704°N, 88.6889°W)
Time: 12:26:41
(UTC+02:00)

Altair - Pass Details

Date: 21 June 2019
Orbit: 1501 x 1683 km, 47.2° (Epoch: 17 July)

Event Time Altitude Azimuth Distance (km) Brightness Sun altitude
Rises 01:09:14 0° 169° (S) 4,664 9.8 24.3°
Reaches altitude 10° 01:14:54 10° 142° (SE) 3,724 9.2 23.3°
Maximum altitude 01:18:08 12° 121° (ESE) 3,577 9.0 22.7°
Drops below altitude 10° 01:21:24 10° 100° (E) 3,780 9.0 22.1°
Sets 01:27:14 0° 74° (ENE) 4,817 9.6 21.1°
